Location: Asheville, NC
(35.6000°N, 82.5500°W)
Time: 20:51:09
(UTC-05:00)

NUDT-PHONESAT - Pass Details

Date: 05 January 2018
Orbit: 494 x 513 km, 97.4° (Epoch: 20 January)

Event Time Altitude Azimuth Distance (km) Brightness Sun altitude
Rises 19:07:42 0° 208° (SSW) 2,605 ? -19.1°
Reaches altitude 10° 19:10:42 10° 236° (SW) 1,728 ? -19.7°
Maximum altitude 19:12:36 14° 267° (W) 1,522 ? -20.1°
Drops below altitude 10° 19:14:31 10° 298° (WNW) 1,736 ? -20.4°
Sets 19:17:33 0° 325° (NW) 2,629 ? -21.0°
